Regional Weather Roundup
Issued by NWS

Home | Current Version | Previous Version | Text Only | Print | Product List | Glossary On
Versions: 1 2 3 4 5 6 7 8 9 10 11 12 13 14 15 16 17 18 19 20 21 22 23 24 25 26 27
000
ASUS45 KREV 171610
RWRNV
NEVADA REGIONAL WEATHER ROUNDUP
NATIONAL WEATHER SERVICE RENO NV
800 AM PST SUN DEC 17 2017

NOTE: "FAIR" INDICATES FEW OR NO CLOUDS BELOW 12,000 FEET WITH NO
SIGNIFICANT WEATHER AND/OR OBSTRUCTIONS TO VISIBILITY.

NVZ001-003-004-171700-
WESTERN NEVADA

CITY           SKY/WX    TMP DP  RH WIND       PRES   REMARKS
RENO           PTCLDY    24  16  71 NE3       30.27R
CARSON CITY    FAIR      18  14  86 CALM      30.29S
MINDEN         FAIR      12   9  85 CALM      30.30R
SLIDE MTN        N/A     23   3  42 NE29        N/A
PYRAMID LAKE     N/A     30 N/A N/A SW3         N/A
FALLON         PTCLDY    16  10  77 VRB6      30.30R
LOVELOCK       MOCLDY    11   7  84 NE3       30.30R
HAWTHORNE      CLEAR     21  16  79 S3        30.29R
$$

NVZ002-CAZ072-073-171700-
NORTHERN AND CENTRAL SIERRA

CITY           SKY/WX    TMP DP  RH WIND       PRES   REMARKS
S. LAKE TAHOE  PTCLDY    19  12  74 S5        30.16R
TRUCKEE        CLEAR     12   9  85 CALM      30.20R
SQUAW VLY 8000   N/A     18  14  86 E5          N/A
SUSANVILLE     CLEAR    N/A N/A N/A W3        30.26F
BLUE CANYON    CLEAR     41   8  25 VRB6      30.03R
MAMMOTH LAKES  FAIR      20   2  46 W14       30.16F
$$

NVZ030-031-036-171700-
NORTHERN NEVADA

CITY           SKY/WX    TMP DP  RH WIND       PRES   REMARKS
ELKO           PTCLDY    13   8  81 CALM      30.23R
WINNEMUCCA     MOCLDY    10   4  76 CALM      30.27S
WENDOVER       PTCLDY    23  16  74 NE5       30.23S
$$

NVZ035-037-171700-
CENTRAL NEVADA

CITY           SKY/WX    TMP DP  RH WIND       PRES   REMARKS
ELY            PTCLDY     7   3  84 S10       30.17S WCI  -8
EUREKA           N/A     12   8  84 S6        30.20R
$$

NVZ013-014-171700-
SOUTH CENTRAL NEVADA

CITY           SKY/WX    TMP DP  RH WIND       PRES   REMARKS
TONOPAH        CLOUDY    22  10  60 NW9       30.20R
$$

NVZ017-020-022-171700-
SOUTHERN NEVADA

CITY           SKY/WX    TMP DP  RH WIND       PRES   REMARKS
LAS VEGAS      SUNNY     48  18  30 N22G32    30.08R
N. LAS VEGAS   SUNNY     47  16  29 N22G30    30.08R
NELLIS AFB     SUNNY     46  18  32 W10       30.09R
HENDERSON      SUNNY     46  17  31 N17       30.10R
MERCURY        SUNNY     37  14  38 NE18      30.14R
$$




USA.gov is the U.S. government's official web portal to all federal, state and local government web resources and services.